作者amport625 (启动)
看板car
标题[问题] 国道超速被开单多久会收到罚单?
时间Sat Jul 6 22:12:07 2019
家里的车在苗栗严重超速 看到国道警察来不及踩煞车
被雷射照到
看罚则是会被扣牌的那种
版友们除了嘘外
有没有这样超速後多久会收到罚单
or 哪里可以查到车子已经被开案件处理中的卦
--
※ 发信站: 批踢踢实业坊(ptt.cc), 来自: 114.43.220.154 (台湾)
※ 文章网址: https://webptt.com/cn.aspx?n=bbs/car/M.1562422329.A.72D.html
※ 编辑: amport625 (114.43.220.154 台湾), 07/06/2019 22:13:28
1F:推 KarlMarx: 看承办员警心情,至少一个礼拜吧。 07/06 22:14
2F:推 bryanchen98: 通常不会被扣牌啦,缴钱就好了 07/06 22:17
3F:推 frf2pujols17: 差不多跟头七一样久 07/06 22:20
4F:推 eric19850629: 通常网路监理系统通知会比寄来的快 07/06 22:24
6F:→ steven0609: ryPay 07/06 22:26
8F:推 rolandyu: 半个月左右 07/06 22:33
9F:嘘 EFERO: 网路比较早可以查 但是还是希望你被扣牌 07/06 22:38
10F:嘘 hcrcool: 有驾照吗?有说可以严重超速吗? 07/06 22:39
11F:→ hcrcool: 担心这个干嘛 想玩就不要怕啊 07/06 22:39
12F:推 sweetJ: 我有大概1-2个月後才收到罚单...出国那天半夜开车去机场 07/06 22:40
13F:→ sweetJ: 不小心超速,出国玩快一个月...回来後又过1-2个礼拜後才 07/06 22:40
14F:→ sweetJ: 收到 07/06 22:40
15F:嘘 best0811: 干嘛多说了一些话,这会让正义魔人大举入侵耶 07/06 22:41
16F:推 Black8910: 收到就知道了阿...之前才逃过一次雷射枪 @@ 07/06 22:41
17F:嘘 tonica: 开快车收罚单理所当然 07/06 22:44
18F:推 DriveKing: 吊牌没差啦 我爸也是开到被吊牌 就换台车开而已XD 07/06 22:46
19F:推 higger: 有次被照到害我心情差很久,後来没来罚单从今我就不超了 07/06 22:51
20F:→ higger: 所以其实被照到甚至被罚大的,搞不好等於救你一命... 07/06 22:53
21F:推 DSB520: 去办过户吧 至少不用扣牌 07/06 23:06
22F:嘘 MKIU: 爽喔 07/06 23:09
23F:→ g921: 是在中山高南下.长下坡的狗洞狗仔吗? 07/06 23:11
24F:推 gtoselina: 两个星期左右,其实上网查的到 07/06 23:21
25F:推 l1ll: 趁现在过户就免扣牌了 07/06 23:26
26F:推 enthusiastic: 恭喜 07/06 23:27
27F:嘘 flymindtycg: 过户还是会扣喔!扣牌是不分新旧车主的,别乱教 07/06 23:35
28F:推 hu610346: 严重超速是开多少= = 07/06 23:48
29F:→ nicktony: 速限+60以上吧 07/07 00:20
30F:推 GooglePlus: 现在不是超40就算严重超速了 07/07 00:27
31F:推 cka: 超过60KM/HR? 07/07 00:42
32F:推 ookiniSN9: 严重超速-.- 07/07 01:05
33F:推 poikg: 要快就不要怕 07/07 01:10
34F:推 kaosps2: 要等罚单寄来还要去听候裁决 之後才扣牌 07/07 01:22
35F:→ pp938077: 所以是开多快 07/07 01:25
36F:推 KittyDog: 开到要扣牌起码表速180了 07/07 01:33
37F:推 xxxcat: 为什麽这麽多人崩溃 07/07 01:41
38F:推 jazzprozac: 180真敢 07/07 04:11
39F:推 theurgy: 之前一般道路我是过9天才收到照片 07/07 06:49
40F:→ ksk0516: 爽喔问这个要干嘛 07/07 07:15
41F:嘘 tmhs016116: 没装雷达防护罩还敢这麽冲 07/07 07:27
42F:→ chinya51: 问那麽多干麻,收到就去缴钱而以啊 07/07 07:37
43F:推 ETJohn: 没事没事,这边逻辑就是超速比龟车更安全 07/07 08:04
44F:→ ststLiang: 这时候又宁可自己是龟车了 07/07 08:10
45F:推 blindshooter: 有同事过了三个月才收到罚单 07/07 08:12
46F:推 iuexeyz: 赞喔,扣起来刚好 07/07 08:15
47F:推 yhn660713: 之前在国道跨越槽化线过了一个月收到 07/07 08:50
48F:推 Richie1105: 14天後 07/07 08:52
49F:推 dream0955: 国道超速还好 ㄧ堆市区超速被扣牌的XD 跟乡民认真就 07/07 09:31
50F:→ dream0955: 输了 07/07 09:31
51F:推 kizo: 19天内会到 07/07 09:33
52F:推 Seattle995: 监理站系统是写说违规後8-14天可以查到,我是约21天查 07/07 09:37
53F:→ Seattle995: 到,再过几天收到挂号信,国三造桥地磅站前(避车道)被 07/07 09:37
54F:→ Seattle995: 雷射打到146km/hr,早上5:23,罚款3500 07/07 09:38
55F:→ Seattle995: 距离485m喔,根本是视距外了,三眼雷射性能真好~ 07/07 09:38
56F:推 Bboykeyes: 建议装防护罩 07/07 09:41
57F:嘘 st930617: 超一点就算了超速60还有人可以护航 07/07 10:36
58F:推 trickart: 推 正义魔人这辈子没违停过? 害人闪违停撞死比超速还糟 07/07 10:39
59F:推 newton12: 市区超速,约3周收到 07/07 12:45
60F:推 c1396: 放心这边龟车才是罪该万死 07/07 13:20
61F:推 ChaBoyy: 市区超速 一个礼拜马上收到 07/07 16:37
62F:→ ganninian: 恭喜 07/07 17:37
63F:推 michael0725: 一个礼拜就有了 07/07 21:34
64F:推 enkidu0830: 感谢您为国辛劳 07/08 18:51